Location: Country View Observatory
(32.9873°N, 83.6444°W)
Time: 18:28:31
(UTC-04:00)

ISS - Pass Details

Date: 24 September 2019
Orbit: 411 x 421 km, 51.6° (Epoch: 21 October)

Event Time Altitude Azimuth Distance (km) Brightness Sun altitude
Rises 19:51:55 0° 270° (W) 2,336 2.9 -5.7°
Reaches altitude 10° 19:54:54 10° 300° (WNW) 1,476 0.2 -6.3°
Maximum altitude 19:56:32 13° 330° (NNW) 1,307 -0.8 -6.6°
Drops below altitude 10° 19:58:10 10° 359° (N) 1,478 -0.9 -7.0°
Sets 20:01:10 0° 29° (NNE) 2,342 -0.2 -7.6°
